Find Starlink 30480

NORAD ID: 58069 Int'l Des: 2023-158 Owner: SPXS Country: US Constellation: starlink operational
LEOCIRCULAR

Live-Position

3D-Globus wird geladen...

Über Starlink 30480

Beschreibung wird geladen...

Nächste Überflüge

Passes for default location (London). Set your location on the main map for personalized predictions.

Höhenverlauf

Loading altitude history...

Zweizeiliger Elementsatz

1 58069U 23158U 26133.37305353 .00000316 00000-0 21043-4 0 9995
2 58069 43.0012 239.5333 0002791 294.3788 65.6772 15.27582418145138
Epoch: 13. Mai 2026 • Age: 8 hours

Aktueller Status

Höhe 487.4 km
Geschwindigkeit 7.63 km/s
Subsatellitenpunkt 41.74°N, 178.78°W
Startdatum 13. Okt. 2023
Alter 2.5 years
Typ internet

Technische Details

Klassifizierung Payload
Masse 730.00 kg
Trockenmasse 700.00 kg
Gesamtmasse 730.00 kg
Länge 0.30 m
Durchmesser 4.10 m
Spannweite 29.00 m
Form Box + pan
Hersteller SPXS
Bus-Typ Starlink V2M
Phasenstatus In Orbit
Besitzer/Staat SPXS/US

Most Searched